Location: F?ge?el
(45.8833°N, 22.5833°E)
Time: 12:24:56
(UTC+00:00)

Cosmos 2344 - Pass Details

Date: 17 November 2025
Orbit: 1197 x 3045 km, 63.3° (Epoch: 10 December)

Event Time Altitude Azimuth Distance (km) Brightness Sun altitude
Rises 18:35:27 0° 319° (NW) 4,291 7.0 -37.9°
Reaches altitude 10° 18:38:00 10° 315° (NW) 3,429 6.4 -38.4°
Maximum altitude 18:46:07 60° 239° (WSW) 1,846 4.3 -39.7°
Enters shadow 18:47:33 55° 207° (SSW) 1,983 4.4 -40.0°
